www.pogodaiklimat.ru

Погода и климат >> Архив погоды >> Россия >> Свердловская область >> Бутка


ПОГОДА в Бутке

  • Прогноз погоды в Бутке
  • Монитор погоды в Бутке

АРХИВ ПОГОДЫ в Бутке

Время (UTC), дата Ветер
(напр.,м/с)
 
Видим.   Явления Облачность Т
(С)
Тd
(С)
f
(%)
Тe
(С)
Тes
(С)
Комфортность P
(гПа)
Po
(гПа)
Тmin
(С)
Tmax
(С)
R
(мм)
R24
(мм)
S
(см)
18 10.09 З 3 н/о н/о +12.7 +7.4 70
21 10.09 СЗ 2 н/о н/о +11.2 +6.6 73
00 11.09 СЗ 2 н/о н/о +11.0 +6.5 74
03 11.09 СЗ 3 50 км 10/0
[Ac trans Ci fib]
+12.1 +7.1 71 +11 +11 1028.7 1015.7 +8.5
06 11.09 С 4 50 км 10/1 600 м
[Cu hum Ac trans Ci fib]
+16.5 +8.3 58 +16 +18 1029.6 1016.8
09 11.09 С 3 50 км 8/8 600 м
[Cb cap Ci fib]
+17.3 +7.3 52 +17 +18 1029.7 1016.9
12 11.09 З 3 50 км 10/1 600 м
[Cb cap Ac trans Ci sp]
+18.0 +6.0 45 +18 +19 1029.4 1016.7
15 11.09 ЮЗ 1 50 км 10/0
[Ac trans Ci fib]
+10.7 +7.2 79 +10 +10 1029.4 1016.5 +18.8
18 11.09 Ю 2 н/о н/о +7.4 +6.1 91
21 11.09 Ю 2 н/о н/о +9.9 +8.7 92
00 12.09 З 3 н/о н/о +11.6 +9.3 86
03 12.09 З 4 50 км 8/4 600 м
[Cb cap Ac lent]
+12.3 +8.8 79 +10 +11 1024.8 1012.0 +7.1
06 12.09 З 3 50 км в посл. час ливневой дождь 10/6 600 м
[Cb cap Ac lent]
+12.6 +10.7 88 +11 +11 1024.0 1011.2
09 12.09 СЗ 3 50 км {ливн. осадки} 9/8 600 м
[Cb cap Ac trans Cc]
+16.6 +11.5 72 +16 +17 1023.1 1010.4
12 12.09 З 3 50 км {ливн. осадки} 9/4 600 м
[Cb cap Ac trans]
+17.6 +10.9 65 +18 +18 1022.7 1010.0
15 12.09 З 3 50 км 5/0
[Ac lent Ci fib]
+13.9 +10.0 77 +13 +13 1023.2 1010.4 +17.9 2
18 12.09 Ю 2 н/о н/о +7.8 +6.6 92
21 12.09 Ю 1 н/о н/о +6.3 +5.3 93
00 13.09 Ю 1 н/о н/о +3.7 +2.8 94
03 13.09 ЮЗ 1 300 м туман ясно +7.4 +6.5 94 +6 +7 1022.2 1009.1 +3.1
06 13.09 ЮЗ 2 50 км {туман} 10/3 1000 м
[Cu hum Ci fib]
+16.7 +12.2 75 +17 +20 1020.6 1007.9
09 13.09 З 5 50 км 10/5 600 м
[Cu med, cong Ci sp]
+21.7 +11.7 53 +24 +25 комфорт 1018.9 1006.5
12 13.09 З 5 50 км 8/6 600 м
[Cb cap Ci sp]
+22.4 +11.0 48 +24 +25 комфорт 1017.2 1004.9
15 13.09 ЮЗ 2
{14}
4000 м {гроза, ливн. осадки} 3/0
[Ac lent Ci sp]
+12.4 +9.6 83 +11 +11 1018.0 1005.2 +23.0 0.3
18 13.09 З 3 н/о н/о +12.4 +10.1 86
21 13.09 Ю 2 н/о н/о +8.8 +7.3 90
00 14.09 Ю 2 н/о н/о +7.2 +6.1 93
03 14.09 Ю 2 50 км 10/0
[Ci sp]
+11.2 +10.2 94 +10 +11 1017.0 1004.1 +7.0
06 14.09 ЮЗ 3 50 км 10/0
[Ci sp]
+19.4 +11.4 60 +21 +25 комфорт 1015.9 1003.4
09 14.09 З 4 50 км 10/0
[Ci sp]
+22.5 +11.1 48 +25 +28 комфорт 1015.0 1002.7
12 14.09 З 4 50 км 10/1 1000 м
[Cu hum Cc]
+23.7 +7.6 36 +24 +25 комфорт 1014.0 1001.7
15 14.09 ЮЗ 2 4000 м 1/0
[Ac trans]
+15.4 +8.8 65 +15 +15 1014.5 1001.9 +23.8
18 14.09 Ю 2 н/о н/о +10.1 +7.0 81
21 14.09 ЮЗ 2 н/о н/о +7.8 +6.4 91
00 15.09 Ю 2 н/о н/о +7.6 +6.1 90
03 15.09 Ю 1 50 км ясно +10.3 +8.5 89 +10 +11 1013.4 1000.6 +5.6
06 15.09 Ю 4 50 км 1/0
[Ci fib]
+22.0 +7.6 39 +23 +27 комфорт 1012.0 999.6
09 15.09 ЮЗ 6-11
{11}
50 км 3/1 1000 м
[Cu hum Ci fib]
+25.2 +3.6 25 +24 +27 комфорт 1010.1 997.9
12 15.09 ЮЗ 4
{11}
50 км 3/3 600 м
[Cu med, cong]
+24.1 +3.9 27 +24 +24 комфорт 1008.8 996.7
15 15.09 ЮЗ 2 4000 м 4/0
[Ac trans]
+15.3 +5.4 52 +15 +15 1008.8 996.2 +25.6
18 15.09 ЮЗ 1 50 км 6/0
[Ac trans]
+14.8 +5.0 52 +15 +15 1008.5 975.0
21 15.09 Ю 2 н/о н/о +10.6 +6.6 76
00 16.09 Ю 2 н/о н/о +9.4 +6.5 82
03 16.09 ЮЗ 2 50 км в посл. час ливневой дождь 10/5 600 м
[Cb cap Ac lent]
+11.1 +8.2 82 +10 +10 1007.1 994.4 +9.0
06 16.09 З 3 50 км в посл. час ливневой дождь 10/8 600 м
[Cb cap Ac lent]
+13.7 +8.9 73 +13 +13 1006.4 993.7
09 16.09 З 3 50 км в посл. час ливневой дождь 10/10 600 м
[Cb cap]
+11.4 +7.8 79 +10 +10 1006.0 993.3
12 16.09 ЮВ 1 11 км слаб. дождь 10/4 300 м
[Frnb As op]
+9.7 +8.1 90 +9 +9 1005.9 993.1
15 16.09 Ю 2 4000 м {дождь} 9/0
[Ac lent]
+7.8 +6.6 92 +6 +6 1005.4 992.5 +14.4 4
18 16.09 Ю 3 н/о н/о +6.6 +5.6 93
21 16.09 Ю 3 н/о н/о +5.5 +4.6 94
00 17.09 ЮЗ 2 н/о н/о +6.7 +5.8 94
03 17.09 Ю 4 12 км слаб. дождь 10/9 300 м
[Frnb As op]
+8.5 +7.3 92 +5 +5 1001.0 988.2 +5.4 2
06 17.09 ЮЗ 7-11
{11}
50 км {дождь} 9/8 600 м
[Frnb Ac lent]
+12.8 +7.7 71 +10 +10 1000.7 988.1
09 17.09 ЮЗ 6
{12}
50 км 9/8 600 м
[Cb cap Ac lent Cc]
+14.8 +7.3 61 +13 +14 1001.1 988.6
12 17.09 З 4
{12}
50 км {ливн. осадки} 9/9 600 м
[Cb cap]
+13.1 +5.6 60 +12 +12 1002.5 989.9

 

Местоположение метеостанции Бутка (Свердловская область, Россия): широта 56.72 долгота 63.77 высота над уровнем моря 106 м.

В архиве по умолчанию представлена погода в Бутке за последнюю неделю. Архивные данные за месяц целиком и за предыдущие месяцы, начиная с января 2011 года, Вы можете получить, выбрав интересующий диапазон дат из раскрывающегося списка и нажав кнопку "Ввод!".


*Определитесь, кто Вы:
робот инопланетянин человек

Внимание! Время в таблицах - всемирное. Для получения местного времени необходимо прибавить поправку, которая равна 5 ч.

Смотрите также архив погоды в соседних городах и на ближайших метеорологических станциях:

Погода в Шатрово (Курганская область, Россия) (58 км)
Погода в Камышлове (Свердловская область, Россия) (66 км)
Погода в Тугулыме (Свердловская область, Россия) (67 км)
Погода в Далматово (Курганская область, Россия) (72 км)
Погода в Шадринске (Курганская область, Россия) (73 км)
Погода в Исетском (Тюменская область, Россия) (99 км)
Погода в Тюмени (Тюменская область, Россия) (110 км)
Погода в Ирбите (Свердловская область, Россия) (111 км)
Погода в Каменск-Уральском (Свердловская область, Россия) (121 км)
Погода в Артемовском (Свердловская область, Россия) (133 км)

Пояснения к столбцам:

Ветер - указаны скорость ветра в м/с - средняя за 10 мин, порывы в срок и между сроками (в фигурных скобках) и направление, откуда дует ветер: С - северный, СВ - северо-восточный, В - восточный, ЮВ - юго-восточный, Ю - южный, ЮЗ - юго-западный, З - западный, СЗ - северо-западный.
Видимость - горизонтальная дальность видимости в метрах или километрах. При видимости от 1 до 10 км при отсутствии осадков обычно наблюдается дымка, при ухудшении видимости до 1 км и менее - туман. В сухую погоду видимость может ухудшаться дымом, пылью или мглою.
Явления - указаны атмосферные явления, наблюдавшиеся в срок или в последний час перед сроком; фигурными скобками обозначены явления, наблюдавшиеся между сроками (за 1-3 часа до срока); квадратными скобками обозначены град или гололедные отложения с указанием их диаметра в мм.
Облачность - указаны через наклонную черту общая и нижняя облачность в баллах и высота нижней границы облаков в метрах; квадратными скобками обозначены формы облаков: Ci - перистые, Cs - перисто-слоистые, Cc - перисто-кучевые, Ac - высококучевые, As - высокослоистые, Sc - слоисто-кучевые, Ns - слоисто-дождевые, Cu - кучевые, Cb - кучево-дождевые. Подробнее классификацию облаков см. в Атласе облаков (PDF).
T - Температура воздуха - температура, измеренная на высоте 2 м над землей.
Td - Температура точки росы - температура, при понижении до которой содержащийся в воздухе водяной пар достигнет насыщения.
f - Относительная влажность воздуха - влажноcть воздуха, измеренная на высоте 2 м над землей.
Te - Эффективная температура - температура, которую ощущает одетый по сезону человек в тени. Характеристика душности погоды. При расчете учитывается влияние влажности воздуха и скорости ветра на теплоощущения человека.
Tes - Эффективная температура на солнце - температура, которую ощущает человек, с поправкой на солнечный нагрев. Характеристика знойности погоды. Зависит от высоты солнца над горизонтом, облачности и скорости ветра. Ночью, в пасмурную погоду, а также при ветре 12 м/с и более поправка равна нулю.
P - Атмосферное давление - приведенное к уровню моря атмосферное давление.
Po - Атмосферное давление - измеренное на уровне метеостанции атмосферное давление.
Tmin - Минимальная температура - минимум температуры воздуха на высоте 2 м над землей.
Tmax - Максимальная температура - максимум температуры воздуха на высоте 2 м над землей.
R - Количество осадков - Количество выпавших осадков за период времени, мм. При наведении курсора мыши на число - период времени, за который выпало указанное количество осадков.
R24 - Количество осадков - Количество выпавших осадков за 24 часа, мм.
S - Снежный покров - Высота снежного покрова, см. При наведении курсора мыши на число - состояние снежного покрова и степень покрытия местности в баллах.